West Memphis, AR

12:35 AM CDT on August 22, 2019 (GMT -0500)
West Memphis Municipal

Weather History for KAWM - July, 2019

Change the Weather History Date:

Monday, July 22, 2019

  Actual Average Record
Temperature  
Mean Temperature 80 °F -  
Max Temperature 88 °F 91 °F 100 °F (1983)
Min Temperature 72 °F 71 °F 60 °F (2007)
Cooling Degree Days 16    
Growing Degree Days 30 (Base 50)    
Moisture  
Dew Point 76 °F    
Average Humidity 89    
Maximum Humidity 100    
Minimum Humidity 70    
Precipitation  
Precipitation 0.07 in - - ()
Sea Level Pressure  
Sea Level Pressure 29.92 in    
Wind  
Wind Speed 5 mph (WSW)    
Max Wind Speed 15 mph    
Max Gust Speed 22 mph    
Visibility 7 miles    
Events Rain , Thunderstorm    
Averages and records for this station are not official NWS values.
T = Trace of Precipitation, MM = Missing Value Source: NWS Daily Summary

Daily Weather History Graph

Daily Weather History Graph

Search for Another Location

Airport or City:

Astronomy

Jul. 22, 2019 Rise Set
Actual Time 6:02 AM CDT 8:11 PM CDT
Civil Twilight 5:33 AM CDT 8:40 PM CDT
Nautical Twilight 4:59 AM CDT 9:15 PM CDT
Astronomical Twilight 4:21 AM CDT 9:52 PM CDT
Moon 11:44 PM CDT 11:09 AM CDT
Length of Visible Light 15h 06m
Length of Day
14h 09m
Waning Gibbous, 72% of the Moon is Illuminated
Jul 22
Waning Gibbous
Jul 24
Last Quarter
Jul 31
New
Aug 7
First Quarter
Aug 15
Full

Hourly Weather History & Observations

Time (CDT) Temp. Heat Index Dew Point Humidity Pressure Visibility Wind Dir Wind Speed Gust Speed Precip Events Conditions
12:05 AM 79.0 °F - 78.1 °F 97% 29.93 in 2.0 mi Calm Calm - N/A   Clear
12:13 AM 80.1 °F 86.4 °F 78.1 °F 94% 29.93 in 1.5 mi Calm Calm - N/A   Clear
12:45 AM 79.0 °F - 78.1 °F 97% 29.92 in 2.0 mi South 3.5 mph - N/A   Clear
12:53 AM 78.1 °F - 78.1 °F 100% 29.91 in 1.8 mi South 3.5 mph - N/A   Clear
1:02 AM 79.0 °F - 78.1 °F 97% 29.92 in 2.0 mi South 4.6 mph - N/A   Clear
1:20 AM 79.0 °F - 78.1 °F 97% 29.91 in 1.8 mi South 4.6 mph - N/A   Clear
1:29 AM 79.0 °F - 78.1 °F 97% 29.92 in 3.0 mi SSW 3.5 mph - N/A   Clear
1:38 AM 79.0 °F - 78.1 °F 97% 29.91 in 1.8 mi SW 4.6 mph - N/A   Clear
1:53 AM 79.0 °F - 78.1 °F 97% 29.90 in 1.0 mi Calm Calm - N/A   Partly Cloudy
2:53 AM 79.0 °F - 77.0 °F 94% 29.90 in 1.2 mi SSW 3.5 mph - N/A   Overcast
3:53 AM 78.1 °F - 75.9 °F 93% 29.90 in 1.2 mi SSW 3.5 mph - N/A   Clear
4:30 AM 79.0 °F - 75.9 °F 90% 29.92 in 3.0 mi SSW 5.8 mph - N/A   Mostly Cloudy
4:53 AM 78.1 °F - 77.0 °F 96% 29.90 in 10.0 mi SSW 9.2 mph - N/A   Scattered Clouds
5:53 AM 78.1 °F - 77.0 °F 96% 29.90 in 9.0 mi South 4.6 mph - N/A   Partly Cloudy
6:16 AM 77.0 °F - 75.9 °F 96% 29.91 in 7.0 mi South 8.1 mph - N/A   Partly Cloudy
6:53 AM 77.0 °F - 77.0 °F 100% 29.92 in 7.0 mi SSW 5.8 mph - N/A   Scattered Clouds
7:02 AM 78.1 °F - 77.0 °F 96% 29.94 in 8.0 mi SSW 5.8 mph - N/A   Mostly Cloudy
7:53 AM 79.0 °F - 77.0 °F 94% 29.93 in 9.0 mi SSW 9.2 mph - N/A   Overcast
8:12 AM 79.0 °F - 77.0 °F 94% 29.94 in 9.0 mi South 9.2 mph - N/A   Overcast
8:53 AM 80.1 °F 85.8 °F 77.0 °F 90% 29.93 in 10.0 mi South 10.4 mph - N/A   Mostly Cloudy
9:53 AM 81.0 °F 87.9 °F 77.0 °F 88% 29.93 in 10.0 mi SSW 6.9 mph - N/A   Overcast
10:22 AM 84.0 °F 94.8 °F 78.1 °F 82% 29.94 in 9.0 mi SW 8.1 mph - N/A   Overcast
10:53 AM 82.9 °F 92.8 °F 78.1 °F 85% 29.92 in 9.0 mi SW 8.1 mph - N/A   Overcast
11:53 AM 84.9 °F 96.6 °F 78.1 °F 80% 29.91 in 9.0 mi SW 8.1 mph - N/A   Scattered Clouds
12:03 PM 82.9 °F 91.8 °F 77.0 °F 82% 29.93 in 8.0 mi SW 5.8 mph - N/A   Mostly Cloudy
12:15 PM 84.9 °F 96.6 °F 78.1 °F 80% 29.92 in 9.0 mi Variable 6.9 mph - N/A   Scattered Clouds
12:39 PM 84.9 °F 96.6 °F 78.1 °F 80% 29.92 in 8.0 mi WSW 5.8 mph - N/A   Mostly Cloudy
12:53 PM 84.9 °F 97.5 °F 79.0 °F 82% 29.91 in 8.0 mi Variable 5.8 mph - N/A   Overcast
1:17 PM 84.9 °F 96.6 °F 78.1 °F 80% 29.92 in 8.0 mi Variable 4.6 mph - 0.00 in   Mostly Cloudy
1:53 PM 86.0 °F 98.3 °F 78.1 °F 77% 29.91 in 7.0 mi WNW 6.9 mph - 0.00 in   Scattered Clouds
2:53 PM 87.1 °F 98.8 °F 77.0 °F 72% 29.89 in 10.0 mi North 9.2 mph 19.6 mph 0.00 in   Mostly Cloudy
3:00 PM 88.0 °F 100.2 °F 77.0 °F 70% 29.91 in 10.0 mi NNW 13.8 mph 19.6 mph N/A Thunderstorm Scattered Clouds
3:12 PM 84.9 °F 96.6 °F 78.1 °F 80% 29.91 in 10.0 mi NE 15.0 mph - N/A   Mostly Cloudy
3:53 PM 84.9 °F 95.3 °F 77.0 °F 77% 29.91 in 10.0 mi NNE 9.2 mph - N/A   Scattered Clouds
4:53 PM 82.9 °F 90.2 °F 75.0 °F 77% 29.89 in 10.0 mi NNE 6.9 mph - N/A   Mostly Cloudy
5:18 PM 80.1 °F 85.4 °F 75.9 °F 87% 29.91 in 10.0 mi North 4.6 mph - 0.00 in Rain , Thunderstorm Light Thunderstorms and Rain
5:27 PM 80.1 °F 85.4 °F 75.9 °F 87% 29.91 in 10.0 mi North 4.6 mph - 0.00 in   Mostly Cloudy
5:53 PM 80.1 °F 85.4 °F 75.9 °F 87% 29.90 in 10.0 mi Variable 4.6 mph - 0.00 in   Overcast
6:02 PM 79.0 °F - 75.9 °F 90% 29.91 in 10.0 mi Variable 5.8 mph - N/A   Overcast
6:12 PM 77.0 °F - 75.0 °F 94% 29.92 in 1.8 mi North 8.1 mph - 0.07 in Rain Heavy Rain
6:20 PM 75.9 °F - 75.0 °F 97% 29.92 in 3.0 mi North 4.6 mph - 0.07 in Rain Light Rain
6:32 PM 77.0 °F - 75.9 °F 96% 29.93 in 7.0 mi North 6.9 mph - 0.07 in Rain Light Rain
6:53 PM 78.1 °F - 75.0 °F 90% 29.92 in 10.0 mi North 10.4 mph - 0.07 in   Overcast
7:53 PM 75.9 °F - 72.0 °F 87% 29.95 in 10.0 mi NNE 12.7 mph 21.9 mph N/A   Overcast
8:53 PM 75.9 °F - 72.0 °F 87% 29.96 in 10.0 mi North 10.4 mph - N/A   Overcast
9:53 PM 75.0 °F - 71.1 °F 87% 29.97 in 10.0 mi North 9.2 mph - N/A   Partly Cloudy
10:53 PM 73.0 °F - 70.0 °F 90% 29.98 in 10.0 mi North 9.2 mph - N/A   Clear
11:53 PM 72.0 °F - 69.1 °F 91% 29.99 in 10.0 mi North 5.8 mph - N/A   Clear